TimeCST,TemperatureF,Dew PointF,Humidity,Sea Level PressureIn,VisibilityMPH,Wind Direction,Wind SpeedMPH,Gust SpeedMPH,PrecipitationIn,Events,Conditions,WindDirDegrees,DateUTC
12:53 AM,36.0,33.1,89,29.95,8.0,ENE,5.8,-,N/A,,Overcast,60,2012-12-08 06:53:00
1:53 AM,34.0,33.1,96,29.95,7.0,North,3.5,-,N/A,,Mostly Cloudy,360,2012-12-08 07:53:00
2:03 AM,33.8,32.0,93,29.94,6.0,North,4.6,-,N/A,,Mostly Cloudy,350,2012-12-08 08:03:00
2:35 AM,32.0,30.2,93,29.94,5.0,NNW,4.6,-,N/A,,Scattered Clouds,340,2012-12-08 08:35:00
2:53 AM,32.0,30.0,92,29.96,5.0,North,5.8,-,N/A,,Clear,350,2012-12-08 08:53:00
3:53 AM,30.0,28.9,96,29.98,5.0,NNW,5.8,-,0.00,,Clear,340,2012-12-08 09:53:00
4:44 AM,30.2,30.2,100,29.96,1.8,North,3.5,-,N/A,,Clear,350,2012-12-08 10:44:00
4:53 AM,30.0,30.0,100,29.99,0.8,North,5.8,-,N/A,,Clear,10,2012-12-08 10:53:00
4:58 AM,30.2,28.4,93,29.96,2.0,North,4.6,-,N/A,,Clear,10,2012-12-08 10:58:00
5:05 AM,30.2,30.2,100,29.97,5.0,North,5.8,-,N/A,,Clear,10,2012-12-08 11:05:00
5:53 AM,28.9,28.0,96,30.01,6.0,NNE,5.8,-,N/A,,Partly Cloudy,30,2012-12-08 11:53:00
6:06 AM,30.2,28.4,93,29.99,6.0,NE,6.9,-,N/A,,Mostly Cloudy,50,2012-12-08 12:06:00
6:19 AM,30.2,28.4,93,29.99,4.0,NE,6.9,-,N/A,,Overcast,50,2012-12-08 12:19:00
6:27 AM,30.2,28.4,93,29.99,1.8,NE,9.2,-,N/A,,Overcast,50,2012-12-08 12:27:00
6:53 AM,30.0,28.9,96,30.02,1.2,ENE,6.9,-,N/A,,Overcast,70,2012-12-08 12:53:00
7:21 AM,30.2,28.4,93,30.00,0.5,East,4.6,-,N/A,Fog,Light Freezing Fog,80,2012-12-08 13:21:00
7:48 AM,30.2,30.2,100,30.01,0.2,NE,4.6,-,N/A,Fog,Light Freezing Fog,50,2012-12-08 13:48:00
7:53 AM,30.0,28.9,96,30.03,0.2,ENE,5.8,-,N/A,Fog,Light Freezing Fog,60,2012-12-08 13:53:00
8:30 AM,30.2,30.2,100,30.01,0.5,ENE,4.6,-,N/A,Fog,Light Freezing Fog,70,2012-12-08 14:30:00
8:53 AM,30.9,30.0,96,30.04,0.5,ESE,3.5,-,N/A,Fog,Light Freezing Fog,110,2012-12-08 14:53:00
9:10 AM,30.2,30.2,100,30.01,1.0,SE,4.6,-,N/A,,Overcast,130,2012-12-08 15:10:00
9:45 AM,32.0,30.2,93,30.02,2.5,Calm,Calm,-,0.00,,Overcast,0,2012-12-08 15:45:00
9:53 AM,32.0,30.9,96,30.05,2.5,Calm,Calm,-,0.00,Snow,Light Snow,0,2012-12-08 15:53:00
10:08 AM,33.8,30.2,87,30.02,3.0,Variable,3.5,-,0.00,Snow,Light Snow,0,2012-12-08 16:08:00
10:26 AM,33.8,30.2,87,30.03,4.0,Calm,Calm,-,0.00,Rain,Heavy Rain,0,2012-12-08 16:26:00
10:53 AM,36.0,32.0,86,30.05,6.0,Calm,Calm,-,0.00,,Overcast,0,2012-12-08 16:53:00
11:01 AM,35.6,33.8,93,30.03,6.0,Variable,3.5,-,N/A,,Overcast,0,2012-12-08 17:01:00
11:51 AM,37.4,30.2,75,30.01,7.0,ESE,5.8,-,N/A,,Scattered Clouds,110,2012-12-08 17:51:00
11:53 AM,37.0,32.0,82,30.03,7.0,ENE,5.8,-,N/A,,Scattered Clouds,70,2012-12-08 17:53:00
12:03 PM,37.4,32.0,81,30.01,7.0,East,4.6,-,N/A,,Mostly Cloudy,80,2012-12-08 18:03:00
12:53 PM,39.0,33.1,79,30.01,9.0,NE,5.8,-,0.00,Rain,Light Rain,50,2012-12-08 18:53:00
1:04 PM,39.2,33.8,81,29.99,10.0,NE,6.9,-,0.00,Rain,Light Rain,50,2012-12-08 19:04:00
1:53 PM,39.0,32.0,76,30.00,9.0,East,9.2,-,0.00,,Partly Cloudy,90,2012-12-08 19:53:00
2:53 PM,37.0,30.9,79,30.00,8.0,SE,8.1,-,N/A,,Partly Cloudy,130,2012-12-08 20:53:00
3:53 PM,36.0,30.9,82,30.01,8.0,ESE,6.9,-,0.00,,Overcast,120,2012-12-08 21:53:00
4:53 PM,36.0,30.9,82,30.02,8.0,SSE,8.1,-,N/A,,Mostly Cloudy,150,2012-12-08 22:53:00
5:53 PM,35.1,30.0,82,30.01,8.0,SE,5.8,-,0.00,Snow,Light Snow,140,2012-12-08 23:53:00
6:53 PM,35.1,30.9,85,30.00,8.0,ESE,8.1,-,0.00,,Overcast,110,2012-12-09 00:53:00
7:53 PM,35.1,32.0,89,30.00,8.0,ESE,9.2,-,N/A,,Overcast,110,2012-12-09 01:53:00
8:29 PM,35.6,32.0,87,29.98,9.0,East,8.1,-,N/A,,Overcast,100,2012-12-09 02:29:00
8:53 PM,36.0,32.0,86,30.00,9.0,East,6.9,-,N/A,,Overcast,90,2012-12-09 02:53:00
9:53 PM,36.0,32.0,86,30.00,8.0,East,6.9,-,N/A,,Overcast,90,2012-12-09 03:53:00
10:53 PM,36.0,32.0,86,30.00,8.0,East,6.9,-,N/A,,Overcast,90,2012-12-09 04:53:00
11:06 PM,35.6,32.0,87,29.97,7.0,East,8.1,-,N/A,,Overcast,100,2012-12-09 05:06:00
11:53 PM,36.0,33.1,89,29.99,7.0,East,8.1,-,0.00,,Overcast,80,2012-12-09 05:53:00